Temperature
20 19 20 19 19 19 19 20 19 19 19 19 19 19 19 19 19 19 19 19 19 19 19 19 19 19 19 19 19 19 19 19 19 19 18 18 18 18 18 18 18 17 18
20 19 20 19 19 19 19 19 19 19 19 19 19 19 19 19 19 19 19 19 19 19 19 19 19 19 19 19 19 19 19 19 19 18 18 18 18 18 18 18 18 17 18
20 19 19 19 19 19 19 19 19 19 19 19 19 19 19 19 19 19 19 19 19 19 19 19 19 19 19 19 19 18 18 18 18 18 18 18 18 18 18 18 18 18 18
20 19 19 19 19 19 19 19 19 19 19 19 19 19 19 19 19 19 19 19 19 19 19 19 19 19 18 18 18 18 18 18 18 18 18 18 18 18 18 18 18 18 18
19 19 19 19 19 19 19 19 19 19 19 19 19 19 19 19 19 19 19 19 19 19 19 19 19 18 18 18 18 18 18 18 18 18 18 18 18 18 18 18 18 18 18
20 19 19 19 19 19 19 19 19 19 19 19 19 19 19 19 19 19 19 18 18 18 19 18 19 19 18 18 18 18 18 18 18 18 18 18 18 18 18 18 18 18 18
20 19 19 19 19 19 19 19 19 19 19 19 19 19 19 19 19 19 19 19 18 18 18 18 18 18 18 18 18 18 18 18 18 18 18 18 18 18 18 18 18 18 18
20 19 19 19 19 19 19 19 19 19 19 19 19 19 19 19 19 19 19 19 19 19 18 18 18 18 18 18 18 18 18 18 18 18 18 18 18 18 18 18 18 18 18
20 20 19 19 19 19 19 19 19 19 19 19 19 19 19 19 19 19 19 19 19 19 18 18 18 18 18 18 18 18 18 18 18 18 18 18 18 18 18 18 18 18 18
20 20 19 19 19 19 19 19 19 19 19 19 19 19 19 19 19 19 19 19 19 19 18 18 18 18 18 18 18 18 18 18 18 19 18 18 18 18 18 18 18 18 18
19 20 20 20 19 19 19 19 19 19 19 19 19 19 19 18 18 18 18 19 19 19 19 18 18 18 18 18 18 18 18 18 19 19 18 18 18 18 18 18 18 18 18
20 20 19 19 19 19 19 19 18 18 19 18 18 18 18 18 18 18 18 19 19 19 19 19 18 18 18 18 18 18 18 18 19 19 19 19 18 18 18 18 18 18 18
20 20 19 19 19 19 19 19 19 19 18 18 18 18 18 18 18 18 18 18 18 18 18 18 18 18 18 18 18 18 18 19 19 19 19 19 18 18 18 18 18 18 18
20 20 19 19 19 19 19 19 19 19 19 19 18 18 18 18 18 18 18 18 18 18 18 18 18 18 18 18 18 18 18 19 19 19 19 19 18 18 18 18 18 18 18
20 20 19 19 19 19 19 18 19 18 19 19 18 18 18 18 18 18 18 18 18 18 18 18 18 18 18 18 18 18 18 18 18 19 18 18 18 18 18 18 18 18 18
20 20 19 19 19 19 19 19 18 19 19 18 18 18 18 18 18 18 18 18 18 18 18 18 18 18 18 18 18 18 18 18 18 18 18 18 18 18 18 18 18 18 18
20 20 20 20 19 19 19 19 19 19 19 18 18 18 18 18 18 18 18 18 18 18 18 18 18 18 18 18 18 18 18 18 18 18 18 18 18 18 18 18 18 18 18
20 20 20 20 19 20 19 19 19 19 18 18 18 18 18 18 18 18 18 18 18 18 18 18 18 18 18 18 18 18 18 18 18 18 18 18 18 18 18 18 18 18 18
20 20 20 20 20 20 19 19 19 19 18 18 18 18 18 18 18 18 18 18 18 18 18 18 18 18 18 18 18 18 18 18 18 18 18 18 18 18 18 18 18 18 18
21 21 20 20 20 20 19 19 19 19 18 18 18 18 18 18 18 18 18 18 18 18 18 18 18 18 18 18 18 18 18 18 18 18 18 18 18 18 18 18 18 18 18
21 21 21 20 20 20 19 19 19 19 19 18 18 18 18 18 18 18 18 18 18 18 18 17 17 17 17 17 18 18 18 18 18 18 18 18 18 18 18 18 18 17 17
21 21 21 21 20 20 19 19 19 19 18 18 19 18 18 18 18 18 18 18 18 18 18 17 17 17 17 17 18 18 19 19 18 18 18 18 18 18 18 18 17 17 17
21 21 21 21 20 20 20 19 19 19 19 19 18 18 18 18 18 18 18 18 18 18 18 18 17 17 18 17 17 18 18 19 19 18 18 18 17 17 17 17 17 17 17
21 21 21 21 21 20 20 19 19 19 19 19 18 18 18 18 18 18 18 18 18 18 18 17 17 17 17 18 17 17 17 17 18 18 18 18 18 17 17 17 17 17 17
21 21 21 21 21 20 20 19 19 19 19 19 18 18 18 18 18 18 18 18 18 18 18 17 17 17 17 17 17 17 17 17 17 18 18 18 18 18 17 17 17 17 17
21 21 21 21 20 20 20 19 19 19 19 18 18 18 18 18 18 18 18 18 18 18 17 17 17 17 17 17 17 17 17 17 17 17 18 18 18 18 17 17 17 17 16
Wind_Speed
5 8 10 8 9 9 9 9 9 10 11 12 12 13 13 13 13 13 13 13 12 12 12 12 12 12 12 11 10 10 10 10 10 10 10 10 10 10 9 9 8 9 13
7 9 11 8 9 9 9 9 10 10 11 12 12 12 13 13 13 13 13 12 12 12 11 11 11 11 11 10 10 9 10 9 10 9 9 10 10 9 8 6 3 9 11
7 9 10 9 9 9 9 9 9 10 11 11 11 11 12 12 13 13 12 12 11 11 11 10 10 11 10 9 9 9 9 9 8 8 8 8 10 10 8 7 7 9 9
8 9 10 10 9 9 9 9 9 10 10 10 10 11 11 11 12 12 12 12 11 10 10 10 10 10 9 9 8 8 8 8 8 8 7 7 8 11 8 7 7 8 8
9 10 12 10 10 10 9 8 9 9 9 9 10 10 10 11 11 11 12 11 10 10 9 9 9 8 8 8 8 7 7 7 7 8 5 5 6 9 8 7 7 8 8
9 10 13 10 10 10 9 9 9 9 9 9 9 10 10 10 10 10 11 11 10 9 8 8 7 8 8 7 7 7 7 7 8 6 5 5 5 9 7 7 7 7 7
9 10 12 11 10 9 9 9 8 8 8 8 8 9 9 9 9 9 9 9 9 8 7 7 7 7 7 7 7 6 6 6 5 4 5 5 6 8 7 7 7 7 7
9 10 11 11 10 9 9 9 8 8 8 8 8 8 8 8 7 8 8 8 7 6 6 6 6 6 6 6 6 6 6 7 6 4 4 5 8 8 8 7 7 7 7
8 8 9 10 10 9 9 8 8 7 7 7 7 8 8 7 6 7 8 8 7 6 6 5 5 6 6 6 6 7 6 8 6 5 5 5 9 8 7 7 8 8 7
7 7 7 8 8 8 9 9 8 7 7 6 7 7 6 7 7 6 7 7 6 6 5 5 5 5 6 7 7 7 7 9 7 5 4 6 9 7 8 8 8 8 8
7 6 6 6 6 6 7 9 8 8 7 6 7 6 5 5 6 6 5 5 5 5 5 5 5 5 6 9 10 9 9 7 6 4 4 8 8 8 8 8 8 8 8
7 6 6 5 5 5 5 6 5 5 6 4 4 4 3 3 3 3 6 5 4 5 5 6 6 8 9 7 9 12 7 7 6 5 4 9 8 9 9 8 8 7 8
7 6 5 5 4 4 4 4 3 3 4 3 3 2 2 1 2 2 2 4 4 5 4 5 7 5 4 3 4 4 4 5 4 4 5 9 8 9 9 9 9 9 9
6 6 5 5 4 3 2 3 2 2 2 2 3 1 1 0 0 1 0 0 2 2 2 2 2 3 3 4 4 4 5 4 3 3 4 8 7 8 9 9 9 10 10
6 5 5 4 4 3 3 2 2 2 1 2 2 2 1 1 0 0 0 1 1 1 2 2 2 3 3 4 4 4 4 4 4 4 4 8 8 8 8 9 8 9 10
6 5 5 4 4 4 3 2 2 2 2 1 1 1 0 1 1 1 1 1 1 2 1 2 2 3 3 3 4 4 4 4 4 4 4 7 9 8 8 8 9 9 10
7 6 5 5 5 4 3 3 2 2 2 1 1 1 0 1 1 1 1 1 2 1 1 2 2 2 2 3 3 3 3 3 3 4 4 4 6 9 9 9 9 9 9
6 6 5 4 5 5 4 3 2 2 2 2 1 1 1 0 1 2 1 1 2 1 1 1 2 2 1 2 2 2 2 3 3 4 4 5 5 6 8 9 9 9 9
7 6 6 5 5 4 4 3 3 2 1 1 1 1 0 1 1 1 1 1 2 1 1 2 0 1 1 2 2 2 2 2 3 3 3 4 4 4 5 7 9 9 9
7 7 6 6 5 5 4 3 2 2 2 2 1 1 1 1 1 2 1 1 2 1 1 1 1 2 2 2 3 1 2 2 2 3 4 3 3 4 4 3 6 8 9
8 8 7 6 6 5 4 3 3 3 2 2 1 1 1 1 1 1 1 1 2 1 2 2 2 2 2 1 2 2 2 2 2 2 2 2 2 3 3 4 4 4 5
10 9 8 8 7 6 5 4 3 2 2 2 1 1 1 1 1 1 1 2 1 1 2 2 2 3 1 0 2 2 2 3 3 2 3 3 3 3 3 4 4 5 5
10 10 8 8 8 7 6 5 4 3 3 2 2 1 1 1 1 2 2 3 2 2 2 2 2 3 2 1 1 2 2 2 1 2 2 2 3 3 3 3 5 5 6
9 9 9 8 8 8 7 6 6 4 3 2 2 1 1 1 2 2 2 2 3 3 2 3 2 2 3 2 1 1 2 2 3 2 3 2 3 4 4 4 4 4 5
9 8 9 9 8 8 7 7 6 5 4 3 3 2 2 2 2 2 2 2 3 3 2 3 3 3 2 3 2 2 2 2 4 4 4 3 3 3 3 3 3 3 4
8 8 8 9 9 9 8 7 7 5 4 3 3 2 2 2 2 2 3 3 3 3 2 3 3 3 3 3 3 2 2 2 3 3 5 5 4 3 3 3 4 3 4
Wind_Direction
114 117 117 122 122 121 121 122 123 129 133 134 137 141 145 146 146 144 141 138 136 133 131 128 127 127 127 126 125 125 125 125 125 126 126 127 128 127 127 133 146 125 116
121 121 122 125 124 122 122 123 123 127 129 131 133 139 144 147 148 146 144 141 139 135 133 131 130 130 131 130 130 130 133 134 135 136 138 140 138 134 134 137 125 108 124
125 126 129 124 124 121 120 123 122 122 125 129 133 139 142 146 148 148 145 143 140 137 136 134 132 132 134 135 134 136 139 143 142 150 168 156 141 141 140 140 129 127 135
118 128 127 125 125 121 120 121 122 122 125 129 136 140 142 144 147 148 145 145 142 140 140 140 138 138 141 142 144 145 146 151 158 182 185 149 141 137 148 151 149 146 147
111 119 119 125 124 123 122 122 121 123 124 130 138 142 142 140 141 147 147 146 145 142 141 142 144 147 148 149 150 151 154 163 186 206 165 146 137 137 156 163 163 161 158
112 117 118 124 121 122 123 121 122 124 127 130 137 142 142 141 143 146 146 145 144 146 148 149 150 154 154 155 157 161 169 185 208 183 159 163 152 148 166 173 171 172 171
110 111 118 122 121 124 125 122 122 125 128 127 129 138 145 145 146 147 148 150 151 154 158 158 158 160 165 167 170 175 185 214 215 183 172 174 153 153 175 181 176 176 181
108 110 116 121 119 120 122 123 123 123 124 122 123 128 132 142 150 152 154 156 159 164 167 169 169 172 174 179 185 189 197 228 208 193 186 170 142 165 185 187 183 184 188
110 113 118 127 131 130 125 124 122 123 123 124 127 129 130 134 143 161 163 162 164 169 179 183 180 183 185 187 192 198 208 235 231 198 193 168 142 172 189 190 189 192 192
114 114 117 121 123 135 136 132 127 125 125 125 130 130 139 146 147 153 168 161 171 178 186 187 185 187 190 194 195 197 209 231 226 203 197 148 151 184 196 196 194 195 196
123 121 120 122 125 129 132 131 140 141 138 146 146 143 163 157 144 154 138 148 175 181 188 193 195 197 203 195 192 198 214 221 218 218 207 137 166 193 201 199 194 194 198
134 130 127 127 127 129 129 130 139 143 136 144 126 141 146 126 134 136 130 160 179 187 194 197 202 204 219 200 188 200 216 218 226 218 176 149 181 197 201 198 199 200 199
138 134 133 128 125 125 131 132 132 135 131 138 117 129 117 126 139 138 148 167 178 193 195 186 202 211 215 213 216 215 228 234 224 223 164 156 185 199 202 198 201 203 201
143 143 140 133 133 133 124 132 139 138 138 132 119 145 143 134 119 94 158 193 202 201 197 217 213 218 225 223 223 226 228 233 225 220 170 167 190 202 204 201 202 204 203
151 152 149 145 143 143 147 177 151 139 128 127 112 132 172 214 254 356 261 234 236 223 217 222 226 226 227 221 219 223 233 237 243 229 182 174 191 203 207 206 204 208 205
162 161 154 158 158 158 163 174 170 164 145 148 152 121 140 332 6 338 291 277 265 243 255 251 248 242 240 237 229 224 233 230 232 235 210 182 186 193 202 207 210 213 213
167 166 166 166 163 169 180 185 179 177 155 155 141 116 122 321 356 316 323 296 325 312 253 245 251 247 238 242 244 232 225 234 224 234 224 207 190 187 195 207 215 219 217
171 166 170 174 169 172 179 189 188 175 154 158 140 124 145 297 284 294 321 336 344 311 286 250 240 247 257 259 248 243 219 208 216 222 220 212 216 210 195 198 213 221 220
178 174 174 178 178 177 175 184 192 179 179 168 150 134 141 274 292 285 336 3 297 294 288 274 268 277 264 271 245 234 232 216 218 214 218 218 218 225 223 194 205 215 218
181 181 180 177 178 182 178 179 191 187 184 178 164 118 266 267 288 288 271 310 298 317 302 314 291 282 275 275 276 266 247 225 224 222 227 217 218 231 239 231 217 205 205
184 185 186 185 177 182 184 191 186 186 194 183 183 157 226 280 294 283 314 332 300 316 316 306 293 267 263 269 263 256 236 223 217 218 230 238 222 228 235 234 240 245 215
189 190 189 189 185 189 182 190 196 199 198 179 195 144 232 265 279 251 292 296 310 289 278 292 294 296 299 295 295 272 247 214 213 221 224 229 241 230 230 228 241 242 253
193 193 192 191 189 192 189 188 187 190 209 199 201 189 211 250 272 308 302 300 299 281 275 276 279 282 302 305 328 286 283 290 273 213 224 234 242 247 244 239 239 245 246
194 191 190 187 187 187 188 193 197 204 208 209 223 200 215 230 264 281 294 301 295 292 282 267 281 282 278 277 246 260 280 306 287 262 230 229 238 241 246 253 251 243 243
188 187 186 183 184 186 190 192 204 214 211 210 220 207 254 237 252 270 278 285 283 282 286 293 287 280 269 274 274 262 248 245 252 268 273 269 249 238 244 249 254 254 249
180 184 184 181 185 187 191 195 203 211 218 224 238 248 250 249 253 260 267 276 275 289 281 274 274 261 275 285 280 265 256 261 263 261 266 268 270 264 258 260 261 256 256
Height
1520 1519 1519 1520 1520 1521 1521 1522 1523 1523 1524 1524 1525 1526 1527 1528 1529 1531 1533 1534 1536 1537 1538 1540 1541 1542 1543 1544 1545 1546 1547 1548 1549 1550 1551 1552 1553 1554 1554 1555 1556 1557 1556
1520 1520 1520 1521 1522 1523 1523 1524 1524 1525 1525 1526 1527 1528 1529 1530 1531 1532 1534 1536 1537 1538 1540 1541 1542 1543 1544 1546 1546 1547 1548 1549 1550 1551 1552 1553 1554 1554 1555 1556 1557 1558 1557
1520 1520 1521 1522 1523 1524 1525 1525 1526 1527 1527 1528 1528 1529 1530 1531 1532 1534 1535 1537 1538 1540 1541 1542 1543 1544 1545 1546 1547 1548 1549 1550 1551 1552 1553 1555 1555 1555 1556 1557 1557 1558 1558
1520 1521 1522 1524 1525 1526 1526 1527 1528 1528 1529 1529 1530 1531 1531 1532 1534 1535 1536 1538 1539 1541 1542 1543 1544 1545 1546 1547 1548 1549 1550 1551 1552 1553 1555 1557 1557 1556 1557 1557 1558 1558 1559
1522 1523 1523 1525 1526 1527 1528 1529 1529 1530 1530 1531 1531 1532 1532 1534 1535 1536 1537 1538 1540 1541 1543 1544 1545 1546 1547 1548 1548 1549 1550 1551 1552 1554 1556 1557 1557 1557 1557 1557 1558 1558 1559
1525 1526 1525 1527 1528 1529 1529 1530 1530 1531 1531 1532 1533 1533 1534 1535 1536 1537 1538 1539 1540 1542 1543 1544 1545 1546 1547 1548 1549 1550 1551 1552 1553 1555 1556 1557 1557 1556 1557 1557 1558 1558 1559
1528 1528 1528 1528 1529 1530 1531 1531 1532 1532 1533 1533 1534 1535 1536 1537 1538 1539 1540 1541 1542 1543 1544 1545 1546 1547 1548 1549 1550 1550 1551 1552 1554 1556 1556 1556 1556 1556 1557 1557 1558 1558 1559
1530 1531 1530 1530 1531 1531 1532 1532 1533 1534 1534 1535 1536 1536 1537 1538 1539 1540 1541 1542 1542 1543 1544 1545 1546 1547 1548 1549 1550 1551 1551 1552 1554 1555 1556 1556 1556 1556 1556 1557 1557 1558 1558
1532 1533 1533 1533 1533 1533 1533 1534 1534 1535 1536 1536 1537 1538 1539 1540 1540 1541 1542 1543 1543 1544 1545 1546 1546 1547 1547 1548 1549 1550 1551 1552 1554 1555 1556 1556 1555 1555 1556 1557 1557 1557 1558
1534 1534 1535 1535 1536 1536 1536 1536 1536 1536 1537 1538 1538 1539 1540 1541 1541 1542 1543 1543 1544 1545 1545 1546 1546 1546 1547 1548 1549 1550 1550 1551 1554 1555 1555 1555 1554 1555 1555 1556 1556 1557 1557
1535 1536 1536 1537 1537 1538 1538 1538 1538 1538 1539 1539 1540 1541 1541 1543 1544 1543 1544 1544 1545 1545 1545 1545 1546 1546 1547 1547 1548 1549 1550 1552 1553 1554 1554 1553 1553 1554 1554 1555 1555 1556 1556
1536 1537 1537 1538 1538 1539 1539 1539 1539 1540 1541 1541 1542 1542 1543 1544 1544 1545 1544 1544 1545 1545 1545 1545 1545 1546 1547 1548 1548 1548 1550 1551 1552 1552 1552 1552 1552 1553 1553 1554 1554 1555 1555
1537 1538 1538 1539 1539 1540 1540 1541 1541 1541 1541 1542 1542 1543 1543 1544 1544 1545 1545 1545 1545 1545 1546 1545 1545 1546 1547 1548 1548 1549 1549 1550 1551 1551 1551 1550 1551 1551 1552 1552 1553 1553 1554
1537 1538 1539 1539 1539 1540 1541 1541 1541 1542 1543 1543 1543 1543 1544 1544 1544 1544 1544 1545 1545 1545 1545 1544 1545 1545 1546 1547 1547 1547 1548 1549 1549 1549 1549 1549 1549 1550 1551 1551 1551 1552 1552
1538 1538 1539 1539 1539 1539 1540 1541 1542 1542 1543 1543 1543 1543 1544 1544 1544 1544 1544 1544 1544 1544 1544 1544 1544 1544 1545 1545 1546 1546 1546 1547 1547 1548 1548 1547 1548 1549 1549 1550 1550 1550 1551
1537 1538 1539 1539 1539 1540 1540 1541 1542 1543 1543 1544 1544 1544 1543 1544 1544 1544 1544 1543 1544 1543 1543 1543 1543 1543 1543 1544 1544 1544 1544 1545 1545 1545 1546 1546 1546 1547 1547 1548 1549 1549 1549
1537 1538 1538 1539 1540 1540 1541 1541 1542 1543 1543 1544 1544 1544 1543 1544 1543 1543 1544 1543 1543 1542 1542 1542 1542 1542 1542 1542 1542 1543 1543 1543 1543 1544 1545 1546 1546 1546 1546 1546 1547 1547 1548
1537 1538 1538 1540 1540 1540 1541 1541 1543 1543 1544 1544 1544 1544 1544 1543 1543 1543 1543 1543 1542 1542 1541 1541 1541 1541 1541 1541 1541 1541 1541 1541 1541 1542 1543 1544 1545 1545 1545 1545 1545 1546 1546
1536 1537 1538 1539 1540 1540 1541 1542 1543 1543 1543 1544 1544 1544 1544 1543 1543 1543 1543 1542 1542 1542 1541 1541 1540 1540 1540 1540 1540 1540 1540 1540 1540 1541 1542 1543 1543 1543 1543 1543 1543 1543 1544
1535 1536 1537 1538 1539 1540 1541 1542 1542 1543 1543 1544 1544 1544 1543 1543 1543 1543 1543 1542 1542 1542 1541 1540 1539 1538 1538 1538 1539 1539 1539 1539 1539 1540 1540 1541 1541 1541 1541 1541 1542 1541 1541
1533 1534 1535 1537 1538 1539 1540 1541 1542 1542 1543 1544 1544 1543 1543 1543 1542 1542 1543 1542 1541 1541 1540 1539 1538 1538 1537 1537 1538 1538 1538 1537 1538 1538 1539 1539 1539 1539 1539 1539 1539 1539 1539
1531 1532 1533 1535 1536 1538 1539 1540 1541 1542 1543 1543 1543 1543 1543 1542 1542 1542 1541 1541 1541 1540 1539 1538 1537 1536 1536 1536 1536 1536 1536 1537 1536 1537 1537 1537 1537 1537 1537 1537 1536 1536 1536
1528 1530 1532 1533 1534 1536 1537 1539 1540 1541 1542 1543 1543 1542 1542 1542 1542 1541 1541 1540 1539 1539 1538 1537 1536 1535 1535 1535 1535 1536 1535 1534 1535 1536 1535 1535 1534 1534 1534 1534 1534 1533 1533
1526 1528 1529 1531 1532 1534 1535 1537 1539 1540 1541 1541 1542 1542 1541 1541 1540 1540 1539 1539 1538 1538 1537 1536 1536 1535 1534 1535 1534 1534 1534 1534 1534 1534 1534 1533 1532 1532 1532 1532 1531 1530 1530
1524 1526 1527 1528 1530 1532 1533 1535 1536 1538 1539 1540 1540 1540 1540 1540 1539 1538 1538 1537 1537 1536 1535 1535 1534 1533 1533 1533 1533 1533 1532 1532 1532 1532 1531 1531 1530 1530 1530 1529 1529 1528 1527
1521 1523 1525 1526 1528 1529 1531 1533 1534 1536 1537 1537 1538 1538 1539 1539 1538 1537 1536 1535 1535 1534 1533 1533 1532 1532 1531 1531 1530 1530 1530 1530 1530 1529 1529 1528 1528 1528 1527 1526 1526 1525 1525